This demonstration page uses our WeatherBlox Daily Observations layout. Learn more.

Left ArrowRight Arrow

34.02893, -84.19858

Hourly Observations for December 27, 2018

Temp ( °F °C ) Dew Point ( °F °C ) Humidity (%) Winds ( mph kmh ) Pressure ( in mb ) Visibility ( mi km ) Precip ( " mm )
12:53 am 00:53 Cloudy 47 8.3 32 0 56 56 VRB 7 11 30.38 1029 10 16 0.00 0.00
1:53 am 01:53 Cloudy 46 7.8 32 0 58 58 E 7 11 30.38 1029 10 16 0.00 0.00
2:53 am 02:53 Mostly Cloudy 46 7.8 32 0 58 58 E 7 11 30.37 1028 10 16 0.00 0.00
3:45 am 03:45 Cloudy 46 7.8 32 0 58 58 E 7 11 30.36 1028 10 16 0.00 0.00
3:53 am 03:53 Cloudy 46 7.8 32 0 58 58 E 8 13 30.34 1027 10 16 0.00 0.00
4:53 am 04:53 Cloudy with Light Rain 45 7.2 32 0 61 61 VRB 6 9 30.31 1026 10 16 0.00 0.03
5:53 am 05:53 Cloudy 46 7.8 31 -0.6 56 56 VRB 5 7 30.32 1027 10 16 0.00 0.03
6:53 am 06:53 Cloudy 46 7.8 33 0.6 61 61 VRB 6 9 30.32 1027 10 16 0.00 0.03
7:53 am 07:53 Cloudy 45 7.2 33 0.6 63 63 E 7 11 30.34 1027 10 16 0.00 0.00
8:53 am 08:53 Cloudy 45 7.2 34 1.1 66 66 ENE 9 15 30.33 1027 8 13 0.00 0.00
9:53 am 09:53 Cloudy 46 7.8 36 2.2 68 68 E 8 13 30.35 1028 8 13 0.00 0.00
10:53 am 10:53 Cloudy 47 8.3 38 3.3 71 71 E 8 13 30.32 1027 8 13 0.00 0.00
11:53 am 11:53 Cloudy 49 9.4 40 4.4 71 71 ESE 8 13 30.27 1025 8 13 0.00 0.00
12:53 pm 12:53 Cloudy 49 9.4 41 5 74 74 E 8 13 30.23 1024 8 13 0.00 0.00
1:53 pm 13:53 Cloudy 51 10.6 42 5.6 71 71 VRB 5 7 30.19 1023 8 13 0.00 0.00
2:53 pm 14:53 Cloudy 51 10.6 42 5.6 71 71 ENE 7 11 30.20 1023 8 13 0.00 0.00
3:53 pm 15:53 Cloudy with Light Rain 50 10 43 6.1 77 77 VRB 6 9 30.19 1022 8 13 0.00 0.03
4:53 pm 16:53 Cloudy 50 10 43 6.1 77 77 E 6 9 30.16 1022 8 13 0.00 0.03
5:53 pm 17:53 Cloudy 49 9.4 41 5 74 74 VRB 7 11 30.17 1022 9 14 0.00 0.00
6:08 pm 18:08 Cloudy with Nearby Thunderstorms 48 8.9 42 5.6 80 80 VRB 3 6 30.21 1023 4 6 0.02 0.51
6:19 pm 18:19 Cloudy with Nearby Thunderstorms 47 8.3 43 6.1 86 86 ENE 6 9 30.21 1023 2 3 0.09 2.29
6:32 pm 18:32 Cloudy with Light Rain 47 8.3 44 6.7 90 90 undefined N/A 30.18 1022 3 5 0.12 3.05
6:53 pm 18:53 Cloudy with Light Rain 47 8.3 44 6.7 90 90 VRB 6 9 30.16 1021 6 10 0.13 3.30
7:26 pm 19:26 Cloudy with Light Rain 46 7.8 45 7.2 96 96 VRB 5 7 30.18 1022 5 8 0.00 0.03
7:50 pm 19:50 Cloudy with Rain 46 8 45 7 93 93 E 5 7 30.18 1022 3 4 0.07 1.78
7:53 pm 19:53 Cloudy with Rain 46 7.8 45 7.2 96 96 E 7 11 30.16 1021 3 4 0.07 1.78
8:00 pm 20:00 Cloudy with Light Rain 46 7.8 45 7.2 96 96 VRB 7 11 30.15 1021 3 5 0.01 0.25
8:22 pm 20:22 Cloudy with Light Rain 46 7.8 44 6.7 93 93 VRB 7 11 30.15 1021 5 8 0.02 0.51
8:46 pm 20:46 Cloudy with Heavy Rain 45 7.2 44 6.7 97 97 VRB 6 9 30.18 1022 2 3 0.12 3.05
8:53 pm 20:53 Cloudy with Rain 45 7.2 45 7.2 100 100 E 5 7 30.15 1021 2 3 0.15 3.81
9:34 pm 21:34 Cloudy with Rain 45 7.2 45 7.2 100 100 E 9 15 30.12 1020 2 3 0.22 5.59
9:51 pm 21:51 Cloudy with Light Rain 46 8 45 7 93 93 VRB 6 9 30.12 1020 4 6 0.26 6.60
9:53 pm 21:53 Cloudy with Light Rain 46 7.8 45 7.2 96 96 VRB 6 9 30.11 1020 4 6 0.27 6.86
10:07 pm 22:07 Cloudy with Rain 46 7.8 46 7.8 100 100 VRB 7 11 30.12 1020 3 4 0.04 1.02
10:16 pm 22:16 Cloudy with Light Rain 47 8.3 46 7.8 97 97 undefined N/A 30.12 1020 6 10 0.04 1.02
10:43 pm 22:43 Cloudy with Light Rain 47 8.3 47 8.3 100 100 VRB 7 11 30.09 1019 6 10 0.05 1.27
10:53 pm 22:53 Cloudy with Light Rain 48 8.9 47 8.3 96 96 VRB 6 9 30.09 1019 4 6 0.06 1.52
11:11 pm 23:11 Cloudy with Rain 48 8.9 48 8.9 100 100 VRB 6 9 30.06 1018 3 4 0.04 1.02
11:23 pm 23:23 Cloudy with Light Rain 49 9.4 48 8.9 97 97 ESE 9 15 30.09 1019 3 5 0.04 1.02
11:43 pm 23:43 Cloudy with Rain 49 9.4 49 9.4 100 100 ESE 8 13 30.09 1019 2 3 0.10 2.54
11:53 pm 23:53 Cloudy with Rain 49 9.4 49 9.4 100 100 VRB 6 9 30.09 1019 3 4 0.13 3.30

Powered by AerisWeather